VK3GY-13 Weather Reports


Display with metric or nautical units.
time (UTC)temp
F
wind
direction
speed
MPH
gust
MPH
rain 1hr
in
rain 24hr
in
rain mn
in
humidity
%
barometer
mb
20260509091009 57 192 2.0 3.0 0.00 0.07 0.07 89 1027.2
20260509090009 57 192 2.0 5.0 0.00 0.07 0.07 88 1027.2
20260509085009 57 192 3.0 7.0 0.00 0.07 0.07 88 1027.0
20260509084009 57 184 3.0 5.0 0.00 0.07 0.07 88 1026.9
20260509083009 57 184 2.0 5.0 0.00 0.07 0.07 88 1026.9
20260509082011 57 184 2.0 5.0 0.00 0.07 0.07 88 1026.7
20260509081009 57 184 2.0 3.0 0.00 0.07 0.07 88 1026.6
20260509080009 57 184 1.0 3.0 0.00 0.07 0.07 88 1026.4
20260509075009 57 184 1.0 5.0 0.00 0.07 0.07 88 1026.4
20260509074009 58 184 3.0 6.0 0.00 0.07 0.07 87 1026.2
20260509073009 58 183 2.0 5.0 0.00 0.07 0.07 87 1026.2
20260509072009 58 183 1.0 3.0 0.00 0.07 0.07 87 1026.0
20260509071009 58 183 1.0 3.0 0.00 0.07 0.07 87 1025.9
20260509070009 59 183 3.0 5.0 0.00 0.07 0.07 87 1025.9
20260509065010 59 183 2.0 6.0 0.00 0.07 0.07 87 1025.9
20260509064009 59 184 4.0 7.0 0.00 0.07 0.07 86 1025.9
20260509063009 60 186 4.0 8.0 0.00 0.07 0.07 86 1025.8
20260509062009 60 183 3.0 8.0 0.00 0.07 0.07 85 1025.8
20260509061009 61 186 6.0 9.0 0.00 0.07 0.07 84 1025.8
20260509060009 61 194 6.0 9.0 0.00 0.07 0.07 84 1025.8
20260509055009 61 194 3.0 7.0 0.00 0.07 0.07 83 1025.8
20260509054009 61 197 3.0 7.0 0.00 0.07 0.07 83 1025.7
20260509053009 61 201 4.0 7.0 0.00 0.07 0.07 82 1025.7
20260509052009 62 206 5.0 7.0 0.00 0.07 0.07 82 1025.7
20260509051009 62 211 5.0 8.0 0.00 0.07 0.07 81 1025.7
20260509050009 63 212 4.0 8.0 0.00 0.07 0.07 81 1025.6
20260509045009 63 217 2.0 6.0 0.00 0.07 0.07 81 1025.6
20260509044009 63 217 2.0 7.0 0.00 0.07 0.07 81 1025.6
20260509043009 63 221 3.0 6.0 0.00 0.07 0.07 80 1025.6
20260509042009 63 221 3.0 7.0 0.00 0.07 0.07 78 1025.7
20260509041009 63 232 3.0 8.0 0.00 0.07 0.07 78 1025.6
20260509040008 63 238 2.0 6.0 0.00 0.07 0.07 79 1025.6
20260509035009 63 244 2.0 8.0 0.00 0.07 0.07 79 1025.7
20260509034009 63 241 4.0 8.0 0.00 0.07 0.07 79 1025.7
20260509033009 63 238 2.0 6.0 0.00 0.07 0.07 80 1025.8
20260509032009 63 238 3.0 8.0 0.00 0.07 0.07 79 1025.9
20260509031009 63 252 3.0 7.0 0.00 0.07 0.07 79 1025.8
20260509030009 63 254 3.0 7.0 0.00 0.07 0.07 80 1026.0
20260509025009 62 252 3.0 8.0 0.00 0.07 0.07 81 1026.1
20260509024009 63 252 3.0 9.0 0.00 0.07 0.07 82 1026.2
20260509023009 62 242 2.0 5.0 0.00 0.07 0.07 83 1026.3
20260509022009 62 237 3.0 8.0 0.00 0.07 0.07 83 1026.5
20260509021009 62 239 5.0 9.0 0.00 0.07 0.07 81 1026.6
20260509020010 62 241 5.0 9.0 0.00 0.07 0.07 81 1026.7
20260509015009 63 242 5.0 8.0 0.00 0.07 0.07 83 1026.7
20260509014009 62 237 4.0 7.0 0.00 0.07 0.07 87 1026.8
20260509013009 61 238 3.0 8.0 0.00 0.07 0.07 88 1026.9
20260509012009 61 249 4.0 7.0 0.00 0.07 0.07 90 1026.9
20260509011009 59 269 2.0 7.0 0.00 0.07 0.07 90 1027.0
20260509010009 59 261 3.0 7.0 0.00 0.07 0.07 90 1027.0
20260509005009 58 259 4.0 9.0 0.00 0.07 0.07 90 1027.1
20260509004009 59 266 4.0 10.0 0.00 0.07 0.07 91 1026.9
20260509003009 59 283 2.0 6.0 0.00 0.07 0.07 91 1026.9
20260509002009 58 284 2.0 6.0 0.00 0.07 0.07 91 1026.9
20260509001009 57 287 1.0 8.0 0.00 0.07 0.07 91 1026.8
20260509000009 57 281 2.0 3.0 0.00 0.07 0.07 91 1026.7
20260508235009 57 281 3.0 7.0 0.00 0.07 0.07 91 1026.7
20260508234009 57 282 2.0 7.0 0.01 0.07 0.07 91 1026.8
20260508233009 57 277 2.0 6.0 0.01 0.07 0.07 91 1026.8
20260508232010 56 273 3.0 7.0 0.01 0.07 0.07 91 1026.8
20260508231009 56 269 2.0 6.0 0.01 0.07 0.07 91 1026.8
20260508230009 55 269 2.0 3.0 0.01 0.07 0.07 91 1026.8
20260508225009 55 267 2.0 3.0 0.01 0.08 0.07 91 1026.7
20260508224009 54 267 2.0 3.0 0.00 0.07 0.06 91 1026.5
20260508223009 54 267 3.0 6.0 0.00 0.07 0.06 91 1026.4
20260508222009 54 266 2.0 6.0 0.00 0.07 0.06 91 1026.3
20260508221010 54 266 1.0 3.0 0.00 0.07 0.06 91 1026.2
20260508220009 54 266 3.0 3.0 0.00 0.07 0.06 91 1026.2
20260508215009 54 266 1.0 3.0 0.00 0.07 0.06 91 1026.1
20260508214009 54 264 2.0 3.0 0.00 0.07 0.06 91 1026.0
20260508213009 54 264 1.0 3.0 0.01 0.07 0.06 91 1025.9
20260508212009 54 264 1.0 2.0 0.01 0.07 0.06 91 1025.9
20260508211009 54 264 1.0 3.0 0.01 0.07 0.06 90 1025.7
20260508210009 54 263 1.0 2.0 0.01 0.07 0.06 90 1025.7
20260508205009 55 263 0.0 3.0 0.01 0.07 0.06 90 1025.7
20260508204009 54 263 1.0 3.0 0.03 0.07 0.06 91 1025.6
20260508203009 54 263 0.0 3.0 0.03 0.07 0.05 90 1025.5
20260508202011 54 263 1.0 3.0 0.03 0.09 0.05 90 1025.4
20260508201009 54 263 1.0 3.0 0.03 0.09 0.05 90 1025.3
20260508200009 54 263 2.0 6.0 0.03 0.09 0.05 90 1025.3
20260508195010 54 262 1.0 2.0 0.05 0.09 0.05 90 1025.2
20260508194010 54 262 0.0 1.0 0.03 0.07 0.03 90 1025.1
20260508193009 54 262 1.0 3.0 0.02 0.06 0.02 90 1024.9
20260508192009 54 263 1.0 2.0 0.02 0.06 0.02 90 1024.9
20260508191009 54 263 1.0 2.0 0.02 0.06 0.02 90 1024.8
20260508190010 54 263 0.0 1.0 0.02 0.06 0.02 90 1024.8
20260508185009 54 263 0.0 3.0 0.00 0.04 0.00 90 1024.7
20260508184009 54 263 0.0 6.0 0.00 0.06 0.00 90 1024.7
20260508183009 54 263 2.0 7.0 0.00 0.06 0.00 90 1024.5
20260508182009 54 263 3.0 6.0 0.00 0.08 0.00 90 1024.4
20260508181009 54 263 2.0 6.0 0.00 0.08 0.00 90 1024.3
20260508180009 54 263 2.0 9.0 0.00 0.08 0.00 90 1024.3
20260508175009 53 261 1.0 3.0 0.00 0.08 0.00 90 1024.3
20260508174009 53 260 2.0 3.0 0.00 0.10 0.00 90 1024.2
20260508173009 53 259 2.0 3.0 0.00 0.10 0.00 90 1024.2
20260508172009 53 259 2.0 3.0 0.00 0.11 0.00 90 1024.2
20260508171009 53 259 2.0 6.0 0.00 0.13 0.00 90 1024.3
20260508170009 52 259 0.0 2.0 0.00 0.13 0.00 90 1024.4
20260508165009 52 259 1.0 2.0 0.00 0.15 0.00 90 1024.3
20260508164009 52 259 1.0 3.0 0.00 0.16 0.00 90 1024.3
20260508163009 52 259 2.0 6.0 0.00 0.16 0.00 90 1024.2
20260508162010 52 259 2.0 6.0 0.00 0.16 0.00 90 1024.3
20260508161009 52 262 1.0 3.0 0.00 0.18 0.00 90 1024.2
20260508160009 51 261 3.0 6.0 0.00 0.18 0.00 90 1024.1
20260508155009 51 261 1.0 3.0 0.00 0.18 0.00 89 1024.1
20260508154009 51 261 0.0 2.0 0.00 0.22 0.00 89 1024.0
20260508153009 51 261 0.0 2.0 0.00 0.22 0.00 89 1024.0
20260508152010 51 261 1.0 2.0 0.00 0.23 0.00 89 1024.1
20260508151009 52 261 1.0 2.0 0.00 0.23 0.00 89 1024.1
20260508150009 52 261 1.0 3.0 0.00 0.24 0.00 89 1024.1
20260508145009 52 261 1.0 3.0 0.00 0.24 0.00 89 1024.2
20260508144009 52 261 2.0 3.0 0.00 0.25 0.00 89 1024.1
20260508143010 52 261 2.0 3.0 0.00 0.25 0.00 89 1024.1
20260508142009 53 261 2.0 3.0 0.00 0.25 0.00 89 1024.1
20260508141009 53 261 2.0 6.0 0.00 0.26 0.00 88 1024.2
20260508140009 53 260 2.0 3.0 0.00 0.26 0.00 88 1024.2
20260508135009 53 258 2.0 3.0 0.00 0.26 0.26 88 1024.1
20260508134009 54 258 2.0 3.0 0.00 0.26 0.26 88 1024.1
20260508133009 54 256 2.0 5.0 0.00 0.26 0.26 88 1024.1
20260508132009 54 256 1.0 3.0 0.00 0.26 0.26 88 1024.2
20260508131010 54 254 2.0 5.0 0.00 0.26 0.26 88 1024.1
20260508130009 55 252 3.0 8.0 0.00 0.27 0.26 88 1024.1
20260508125009 55 252 3.0 7.0 0.00 0.27 0.26 87 1024.3
20260508124009 55 236 3.0 7.0 0.00 0.27 0.26 87 1024.3
20260508123010 55 257 3.0 7.0 0.00 0.27 0.26 87 1024.3
20260508122009 55 266 3.0 7.0 0.00 0.27 0.26 88 1024.3
20260508121009 55 267 2.0 6.0 0.00 0.27 0.26 87 1024.4
20260508120009 55 239 2.0 5.0 0.00 0.27 0.26 87 1024.4
20260508115009 55 235 3.0 7.0 0.00 0.27 0.26 87 1024.3
20260508114009 55 253 2.0 5.0 0.00 0.27 0.26 87 1024.2
20260508113009 55 246 1.0 3.0 0.00 0.27 0.26 87 1024.0
20260508112009 55 243 1.0 5.0 0.00 0.27 0.26 87 1024.0
20260508111009 54 241 2.0 5.0 0.00 0.27 0.26 88 1023.9
20260508110010 54 242 1.0 5.0 0.00 0.27 0.26 88 1024.0
20260508105009 54 242 3.0 7.0 0.00 0.27 0.26 88 1023.9
20260508104009 55 243 4.0 8.0 0.00 0.27 0.26 88 1023.8
20260508103009 54 280 2.0 8.0 0.00 0.27 0.26 87 1023.8
20260508102009 54 271 5.0 9.0 0.00 0.28 0.26 86 1023.6
20260508101009 55 240 2.0 7.0 0.00 0.28 0.26 85 1023.6
20260508100009 55 229 5.0 9.0 0.00 0.28 0.26 86 1023.4
20260508095009 55 234 4.0 9.0 0.00 0.29 0.26 87 1023.3
20260508094009 55 249 6.0 12.0 0.00 0.29 0.26 88 1023.4
20260508093009 55 252 6.0 14.0 0.00 0.29 0.26 88 1023.4
20260508092009 55 273 3.0 7.0 0.00 0.29 0.26 88 1023.5